Olive Branch, MS

6:57 PM CST on February 19, 2017 (GMT -0600)
Olive Branch

Weather History for KOLV - November, 2012

Change the Weather History Date:

Wednesday, November 21, 2012

  Actual Average (KMEM) Record (KMEM)
Temperature  
Mean Temperature 53 °F -  
Max Temperature 64 °F 58 °F 77 °F (1943)
Min Temperature 42 °F 41 °F 18 °F (1937)
Degree Days  
Heating Degree Days 12    
Growing Degree Days 3 (Base 50)    
Moisture  
Dew Point 46 °F    
Average Humidity 91    
Maximum Humidity 100    
Minimum Humidity 52    
Precipitation  
Precipitation 0.00 in - - ()
Sea Level Pressure  
Sea Level Pressure 30.20 in    
Wind  
Wind Speed 5 mph (North)    
Max Wind Speed 12 mph    
Max Gust Speed -    
Visibility 8 miles    
Events      
Averages and records for this station are not official NWS values.
T = Trace of Precipitation, MM = Missing Value Source: NWS Daily Summary

Daily Weather History Graph

Daily Weather History Graph

Search for Another Location

Airport or City:

Trip Planner

Search our weather history database for the weather conditions in past years. The results will help you decide how hot, cold, wet, or windy it might be!

Date:

Astronomy

Nov. 21, 2012 Rise Set
Actual Time 6:39 AM CST 4:50 PM CST
Civil Twilight 6:12 AM CST 5:17 PM CST
Nautical Twilight 5:41 AM CST 5:48 PM CST
Astronomical Twilight 5:11 AM CST 6:18 PM CST
Moon 12:53 PM CST (11/21) 12:13 AM CST (11/21)
Length of Visible Light 11h 04m
Length of Day
10h 10m
First Quarter, 62% of the Moon is Illuminated
Nov 21
First Quarter
Nov 28
Full
Dec 6
Last Quarter
Dec 13
New
Dec 19
First Quarter

Hourly Weather History & Observations

Time (CST) Temp. Windchill Dew Point Humidity Pressure Visibility Wind Dir Wind Speed Gust Speed Precip Events Conditions
12:15 AM 48.2 °F - 48.2 °F 100% 30.14 in 10.0 mi NNW 6.9 mph - 0.00 in   Clear
12:35 AM 48.2 °F - 48.2 °F 100% 30.14 in 10.0 mi North 8.1 mph - 0.00 in   Clear
12:55 AM 48.2 °F - 48.2 °F 100% 30.14 in 8.0 mi North 8.1 mph - 0.00 in   Clear
1:15 AM 50.0 °F - 50.0 °F 100% 30.14 in 10.0 mi North 10.4 mph - 0.00 in   Clear
1:35 AM 50.0 °F - 48.2 °F 94% 30.15 in 10.0 mi North 9.2 mph - 0.00 in   Clear
1:55 AM 48.2 °F - 48.2 °F 100% 30.16 in 10.0 mi North 8.1 mph - 0.00 in   Clear
2:15 AM 48.2 °F - 48.2 °F 100% 30.16 in 8.0 mi North 6.9 mph - 0.00 in   Clear
2:35 AM 48.2 °F - 48.2 °F 100% 30.16 in 10.0 mi Calm Calm - 0.00 in   Clear
2:55 AM 48.2 °F - 48.2 °F 100% 30.17 in 10.0 mi Calm Calm - 0.00 in   Clear
3:15 AM 48.2 °F - 48.2 °F 100% 30.17 in 7.0 mi Calm Calm - 0.00 in   Clear
3:35 AM 46.4 °F - 46.4 °F 100% 30.17 in 10.0 mi Calm Calm - 0.00 in   Clear
3:55 AM 46.4 °F - 46.4 °F 100% 30.18 in 8.0 mi Calm Calm - N/A   Clear
4:15 AM 46.4 °F 42.9 °F 46.4 °F 100% 30.18 in 9.0 mi NNW 6.9 mph - 0.00 in   Clear
4:35 AM 46.4 °F 42.9 °F 46.4 °F 100% 30.19 in 7.0 mi NNW 6.9 mph - 0.00 in   Clear
4:55 AM 44.6 °F 40.7 °F 44.6 °F 100% 30.19 in 6.0 mi North 6.9 mph - 0.00 in   Clear
5:15 AM 44.6 °F 40.7 °F 44.6 °F 100% 30.20 in 5.0 mi North 6.9 mph - 0.00 in   Clear
5:35 AM 44.6 °F - 44.6 °F 100% 30.20 in 4.0 mi Calm Calm - 0.00 in   Clear
5:55 AM 44.6 °F - 44.6 °F 100% 30.20 in 4.0 mi Calm Calm - N/A   Clear
6:50 AM 42.8 °F 39.3 °F 37.4 °F 81% 30.22 in 3.0 mi NNW 5.8 mph - N/A   Clear
8:45 AM 51.8 °F - 51.8 °F 100% 30.26 in 7.0 mi NNE 5.8 mph - N/A   Clear
9:50 AM 57.2 °F - 48.2 °F 72% 30.27 in 9.0 mi ENE 5.8 mph - N/A   Clear
10:50 AM 60.8 °F - 46.4 °F 59% 30.26 in 10.0 mi ENE 11.5 mph - N/A   Clear
11:50 AM 62.6 °F - 46.4 °F 55% 30.24 in 10.0 mi Calm Calm - N/A   Clear
1:50 PM 64.4 °F - 46.4 °F 52% 30.23 in 10.0 mi North 9.2 mph - N/A   Clear
3:45 PM 64.4 °F - 46.4 °F 52% 30.20 in 10.0 mi Calm Calm - N/A   Clear
4:55 PM 59.0 °F - 44.6 °F 59% 30.20 in 10.0 mi Calm Calm - N/A   Clear
8:15 PM 51.8 °F - 46.4 °F 82% 30.21 in 6.0 mi Calm Calm - 0.00 in   Clear
8:35 PM 51.8 °F - 46.4 °F 82% 30.21 in 10.0 mi Calm Calm - 0.00 in   Clear
8:55 PM 50.0 °F - 46.4 °F 87% 30.21 in 8.0 mi Calm Calm - 0.00 in   Clear
9:15 PM 48.2 °F - 46.4 °F 93% 30.22 in 8.0 mi Calm Calm - 0.00 in   Clear
9:35 PM 48.2 °F - 46.4 °F 93% 30.22 in 10.0 mi Calm Calm - 0.00 in   Clear
9:55 PM 46.4 °F - 46.4 °F 100% 30.22 in 10.0 mi Calm Calm - 0.00 in   Clear
10:15 PM 46.4 °F - 46.4 °F 100% 30.22 in 7.0 mi Calm Calm - 0.00 in   Clear
10:35 PM 44.6 °F - 44.6 °F 100% 30.21 in 8.0 mi Calm Calm - N/A   Clear
10:55 PM 46.4 °F - 46.4 °F 100% 30.21 in 10.0 mi Calm Calm - 0.00 in   Clear
11:15 PM 44.6 °F - 44.6 °F 100% 30.21 in 10.0 mi Calm Calm - 0.00 in   Clear
11:35 PM 44.6 °F - 44.6 °F 100% 30.21 in 6.0 mi Calm Calm - 0.00 in   Clear
11:55 PM 44.6 °F - 44.6 °F 100% 30.21 in 8.0 mi Calm Calm - 0.00 in   Clear